Regional Weather Roundup
Issued by NWS

Home | Current Version | Previous Version | Text Only | Print | Product List | Glossary Off
Versions: 1 2 3 4 5 6 7 8 9 10 11 12 13 14 15 16 17 18 19 20 21 22 23 24 25 26 27 28 29 30 31 32 33 34 35 36 37 38 39 40 41 42 43 44 45 46 47 48 49 50

000
ASUS43 KLSX 290307
RWRMO

WEATHER SUMMARY FOR MISSOURI
NATIONAL WEATHER SERVICE SPRINGFIELD MO
1000 PM CDT THU AUG 28 2014

NOTE: "FAIR" INDICATES FEW OR NO CLOUDS BELOW 12,000 FEET WITH NO
       SIGNIFICANT WEATHER AND/OR OBSTRUCTIONS TO VISIBILITY.
       CURRENT SKY AND/OR WEATHER CONDITIONS ARE NOT AVAILABLE FOR
       CHILLICOTHE AND FARMINGTON.

MOZ001>031-035>038-043-044-053-054-290400-
...NORTHERN AND WESTERN MISSOURI...

CITY           SKY/WX    TMP DP  RH WIND       PRES   REMARKS
KANSAS CTY INT CLEAR     76  65  68 S8        29.88R
KANSAS C DTWN  CLEAR     83  65  54 S7        29.86R
LEE`S SUMMIT   CLEAR     82  66  58 S7        29.88R
ST JOSEPH      MOCLDY    76  72  87 W3        29.86R
CHILLICOTHE      N/A     79  72  79 E6        29.90R
KIRKSVILLE     CLEAR     74  71  91 E7        29.94R

$$
MOZ066>068-077>081-088>096-101>105-290400-
...SOUTHWEST MISSOURI...

CITY           SKY/WX    TMP DP  RH WIND       PRES   REMARKS
SPRINGFIELD    CLEAR     79  59  50 S8        29.95R
JOPLIN         CLEAR     79  62  56 MISG      29.92S

$$
MOZ032>034-039>042-045>050-055>058-069>072-290400-
...CENTRAL MISSOURI...

CITY           SKY/WX    TMP DP  RH WIND       PRES   REMARKS
COLUMBIA       CLEAR     80  68  66 E8        29.92F
JEFFERSON CITY CLEAR     77  69  76 SE5       29.91R
ROLLA          CLEAR     78  65  63 E9        29.95R
SEDALIA        CLEAR     77  68  73 S7        29.91S
WHITEMAN AFB   CLEAR     78  68  70 SE7       29.89S
OSAGE BEACH    CLEAR     79  63  57 SE5       29.93S

$$
MOZ051-052-059>065-290400-
...EAST CENTRAL MISSOURI...

CITY           SKY/WX    TMP DP  RH WIND       PRES   REMARKS
ST LOUIS INTL  MOCLDY    79  70  74 SE10      29.98S
SPIRIT OF STL  MOCLDY    77  71  82 CALM      29.95S
ST CHARLES     MOCLDY    74  71  91 E7        29.97R

$$
MOZ072>076-082>087-097>100-106>115-290400-
...SOUTH CENTRAL AND SOUTHEAST MISSOURI...

CITY           SKY/WX    TMP DP  RH WIND       PRES   REMARKS
CAPE GIRARDEAU MOCLDY    73  71  93 CALM      29.98F
FARMINGTON     MOCLDY    73  70  88 CALM      30.02S
POPLAR BLUFF   PTCLDY    77  70  79 E5        29.97R
WEST PLAINS    CLEAR     77  62  59 SE5       30.00R

$$



USA.gov is the U.S. government's official web portal to all federal, state and local government web resources and services.